Regional Weather Roundup
Issued by NWS Cleveland, OH

Home | Current Version | Previous Version | Text Only | Print | Product List | Glossary Off
Versions: 1 2 3 4 5 6 7 8 9 10 11 12 13 14 15 16 17 18 19 20 21 22 23 24 25 26 27 28 29 30 31 32 33 34 35 36 37 38 39 40 41 42 43 44 45 46 47 48 49 50

000
ASUS41 KCLE 210102
RWRCLE
OHIO REGIONAL WEATHER ROUNDUP
NATIONAL WEATHER SERVICE CLEVELAND, OH
800 PM EST SAT DEC 20 2014

NOTE: "FAIR" INDICATES FEW OR NO CLOUDS BELOW 12,000 FEET WITH NO
SIGNIFICANT WEATHER AND/OR OBSTRUCTIONS TO VISIBILITY.

OHZ001>008-015>018-024>027-034-035-043-044-210200-
   NORTHWEST OHIO

CITY           SKY/WX    TMP DP  RH WIND       PRES   REMARKS
DEFIANCE       PTCLDY    29  23  78 CALM      30.30R
FINDLAY        CLOUDY    31  24  75 S5        30.27S WCI  26
TOLEDO EXPRESS CLOUDY    29  22  75 CALM      30.28S
TOLEDO EXEC    CLOUDY    31  23  72 SE5       30.30R WCI  26
LIMA           CLOUDY    32  24  72 SW5       30.28R WCI  27
$$

OHZ009>014-019>023-028>033-038-089-210200-
   NORTHEAST OHIO

CITY           SKY/WX    TMP DP  RH WIND       PRES   REMARKS
CLE-HOPKINS    CLOUDY    30  23  75 W3        30.31R
CLE-LAKEFRONT  CLOUDY    32  23  69 SW6       30.29R WCI  26
CUY CO. ARPT   CLOUDY    32  27  80 SW6       30.28  WCI  26
LORAIN-ELYRIA  CLOUDY    29  24  82 SW3       30.29R
ASHTABULA      CLOUDY    30  25  81 CALM      30.27S
AKRON-CANTON   CLOUDY    29  21  72 CALM      30.26R
WOOSTER        CLOUDY    28  21  75 CALM      30.27S
MANSFIELD      CLOUDY    29  23  78 CALM      30.26R
YOUNGSTOWN     CLOUDY    29  21  72 CALM      30.26R
$$

OHZ042-051>053-060>062-070>072-077>081-210200-
  SOUTHWEST OHIO

CITY           SKY/WX    TMP DP  RH WIND       PRES   REMARKS
CINC-COVINGTON CLOUDY    32  25  75 N3        30.28S
CINC-LUNKEN    CLOUDY    31  27  85 CALM      30.32S
HAMILTON       CLOUDY    30  26  85 CALM      30.31S
DAYTON         CLOUDY    31  24  75 CALM      30.29R
WRIGHT-PAT AFB MOCLDY    30  23  74 CALM      30.29S
DAYTON GENERAL CLOUDY    31  24  75 CALM      30.28R
WILMINGTON     CLOUDY    30  24  78 CALM      30.28R HAZE
$$

OHZ036-037-039>041-045>050-054>059-063>069-073>076-082>088-210200-
  CENTRAL AND SOUTHEAST OHIO

CITY           SKY/WX    TMP DP  RH WIND       PRES   REMARKS
COLUMBUS       CLOUDY    30  23  75 N3        30.29R
OSU AIRPORT    CLOUDY    30  24  78 NW5       30.29R WCI  25
BOLTON FIELD   NOT AVBL
RICKENBACK AFB CLOUDY    30  25  81 CALM      30.28S
NEWARK         CLOUDY    31  24  75 CALM      30.28S
MARION         CLOUDY    29  25  85 CALM      30.28S FOG
LANCASTER      CLOUDY    36  25  64 CALM      30.29S
ZANESVILLE     CLOUDY    30  23  75 CALM      30.28S
NEW PHILLY     CLOUDY    31  21  66 CALM      30.29S
$$



USA.gov is the U.S. government's official web portal to all federal, state and local government web resources and services.